Date String (YYYY-MM-DD hh:mm:ss) UTC,Instrument flags,Ambient pressure (hPa),Sample flow (lpm),Bypass flow (lpm),Sample temperature (°C),Ambient temperature (°C),ASC tube jacket temperature (°C),LED temperature (°C),Box temperature (°C),Sample RH (%),Span deviation,Mass concentration (μg/m³),Mass concentration (μg/m³),Mass concentration (μg/m³)
DateTimeUTC,F1_M11,P_M11,Q1_M11,Q2_M11,T1_M11,T2_M11,T3_M11,T4_M11,T5_M11,U1_M11,ZSPAN_M11,X2_M11,X0_M11,X1_M11
2021-12-30 07:00:00,,0813.5,5.00,0.00,22.4,21.6,00.0,31.5,24.0,06.5,0000.0,0004.57,0015.10,0003.13
2021-12-30 07:01:00,,0813.4,4.99,0.00,22.4,22.0,00.0,31.5,24.1,06.5,0000.0,0004.58,0014.91,0003.15
2021-12-30 07:02:00,,0813.4,5.01,0.00,22.6,22.7,00.0,31.5,24.3,06.4,0000.0,0004.60,0015.37,0003.15
2021-12-30 07:03:00,,0813.4,5.00,0.00,22.7,23.3,00.0,31.6,24.6,06.4,0000.0,0004.58,0015.65,0003.15
2021-12-30 07:04:00,,0813.5,4.99,0.00,22.8,23.2,00.0,31.6,24.6,06.4,0000.0,0004.62,0015.34,0003.15
2021-12-30 07:05:00,,0813.5,5.01,0.00,22.8,23.0,00.0,31.6,24.6,06.4,0000.0,0004.65,0016.80,0003.14
2021-12-30 07:06:00,,0813.5,5.00,0.00,22.8,22.7,00.0,31.6,24.5,06.4,0000.0,0004.58,0017.44,0003.11
2021-12-30 07:07:00,,0813.6,5.01,0.00,22.7,22.5,00.0,31.6,24.4,06.5,0000.0,0004.48,0017.98,0003.07
2021-12-30 07:08:00,,0813.6,4.99,0.00,22.7,22.4,00.0,31.6,24.3,06.5,0000.0,0004.48,0017.88,0003.03
2021-12-30 07:09:00,,0813.5,4.99,0.00,22.7,22.2,00.0,31.6,24.3,06.5,0000.0,0004.49,0017.48,0003.01
2021-12-30 07:10:00,,0813.6,5.01,0.00,22.6,22.1,00.0,31.6,24.3,06.5,0000.0,0004.54,0017.54,0002.99
2021-12-30 07:11:00,,0813.5,4.99,0.00,22.6,21.9,00.0,31.6,24.2,06.5,0000.0,0004.60,0017.83,0003.01
2021-12-30 07:12:00,,0813.5,5.00,0.00,22.6,21.9,00.0,31.6,24.2,06.5,0000.0,0004.60,0017.10,0003.02
2021-12-30 07:13:00,,0813.5,5.02,0.00,22.6,21.8,00.0,31.6,24.1,06.5,0000.0,0004.57,0016.73,0003.01
2021-12-30 07:14:00,,0813.5,4.99,0.00,22.5,21.7,00.0,31.6,24.1,06.5,0000.0,0004.62,0016.16,0003.03
2021-12-30 07:15:00,,0813.5,5.01,0.00,22.5,21.6,00.0,31.5,24.0,06.5,0000.0,0004.60,0015.79,0003.01
2021-12-30 07:16:00,,0813.5,4.99,0.00,22.4,21.6,00.0,31.5,23.9,06.6,0000.0,0004.59,0014.14,0003.00
2021-12-30 07:17:00,,0813.6,5.00,0.00,22.4,21.6,00.0,31.5,23.9,06.6,0000.0,0004.63,0013.66,0003.01
2021-12-30 07:18:00,,0813.5,4.99,0.00,22.5,22.2,00.0,31.5,24.1,06.6,0000.0,0004.65,0013.52,0003.00
2021-12-30 07:19:00,,0813.5,5.02,0.00,22.6,23.0,00.0,31.6,24.4,06.6,0000.0,0004.57,0014.34,0002.98
2021-12-30 07:20:00,,0813.5,4.99,0.00,22.7,23.2,00.0,31.6,24.6,06.5,0000.0,0004.54,0015.18,0002.97
2021-12-30 07:21:00,,0813.5,4.99,0.00,22.7,23.0,00.0,31.6,24.6,06.5,0000.0,0004.52,0016.87,0002.98
2021-12-30 07:22:00,,0813.4,5.00,0.00,22.7,22.8,00.0,31.6,24.5,06.5,0000.0,0004.53,0017.14,0002.94
2021-12-30 07:23:00,,0813.4,5.01,0.00,22.7,22.6,00.0,31.6,24.4,06.5,0000.0,0004.52,0017.90,0002.91
2021-12-30 07:24:00,,0813.4,4.99,0.00,22.7,22.4,00.0,31.6,24.4,06.6,0000.0,0004.49,0017.88,0002.90
2021-12-30 07:25:00,,0813.4,5.01,0.00,22.7,22.2,00.0,31.6,24.3,06.5,0000.0,0004.42,0017.85,0002.87
2021-12-30 07:26:00,,0813.5,5.00,0.00,22.6,22.1,00.0,31.6,24.3,06.5,0000.0,0004.39,0017.87,0002.83
2021-12-30 07:27:00,,0813.5,4.99,0.00,22.6,22.0,00.0,31.6,24.2,06.5,0000.0,0004.42,0018.11,0002.82
2021-12-30 07:28:00,,0813.5,5.01,0.00,22.6,21.9,00.0,31.6,24.2,06.6,0000.0,0004.39,0018.53,0002.79
2021-12-30 07:29:00,,0813.5,5.01,0.00,22.6,21.8,00.0,31.6,24.2,06.6,0000.0,0004.35,0017.71,0002.77
2021-12-30 07:30:00,,0813.5,5.00,0.00,22.5,21.7,00.0,31.6,24.1,06.6,0000.0,0004.38,0016.83,0002.79
2021-12-30 07:31:00,,0813.5,5.00,0.00,22.5,21.7,00.0,31.5,24.1,06.6,0000.0,0004.41,0015.75,0002.77
2021-12-30 07:32:00,,0813.5,5.00,0.00,22.5,21.6,00.0,31.5,24.0,06.6,0000.0,0004.39,0013.84,0002.75
2021-12-30 07:33:00,,0813.5,5.00,0.00,22.4,21.7,00.0,31.5,24.0,06.6,0000.0,0004.36,0013.07,0002.77
2021-12-30 07:34:00,,0813.5,4.99,0.00,22.5,22.3,00.0,31.5,24.2,06.6,0000.0,0004.32,0013.19,0002.76
2021-12-30 07:35:00,,0813.6,4.99,0.00,22.7,23.1,00.0,31.6,24.5,06.6,0000.0,0004.37,0014.11,0002.75
2021-12-30 07:36:00,,0813.6,5.01,0.00,22.8,23.3,00.0,31.6,24.7,06.5,0000.0,0004.38,0015.59,0002.73
2021-12-30 07:37:00,,0813.5,5.00,0.00,22.8,23.1,00.0,31.6,24.6,06.5,0000.0,0004.42,0016.34,0002.72
2021-12-30 07:38:00,,0813.5,4.99,0.00,22.8,22.9,00.0,31.6,24.6,06.5,0000.0,0004.39,0015.72,0002.73
2021-12-30 07:39:00,,0813.5,5.01,0.00,22.8,22.7,00.0,31.6,24.5,06.5,0000.0,0004.35,0015.33,0002.73
2021-12-30 07:40:00,,0813.5,5.01,0.00,22.7,22.5,00.0,31.6,24.4,06.5,0000.0,0004.34,0015.41,0002.73
2021-12-30 07:41:00,,0813.4,5.00,0.00,22.7,22.3,00.0,31.6,24.4,06.6,0000.0,0004.32,0015.80,0002.73
2021-12-30 07:42:00,,0813.4,5.00,0.00,22.7,22.1,00.0,31.6,24.3,06.6,0000.0,0004.30,0016.44,0002.74
2021-12-30 07:43:00,,0813.4,4.99,0.00,22.6,22.0,00.0,31.6,24.3,06.6,0000.0,0004.31,0016.83,0002.74
2021-12-30 07:44:00,,0813.3,5.00,0.00,22.6,21.9,00.0,31.6,24.2,06.6,0000.0,0004.30,0017.17,0002.70
2021-12-30 07:45:00,,0813.3,5.00,0.00,22.6,21.8,00.0,31.6,24.2,06.6,0000.0,0004.32,0016.85,0002.70
2021-12-30 07:46:00,,0813.2,5.00,0.00,22.6,21.8,00.0,31.6,24.2,06.6,0000.0,0004.30,0017.15,0002.71
2021-12-30 07:47:00,,0813.2,4.98,0.00,22.6,21.7,00.0,31.6,24.2,06.6,0000.0,0004.30,0016.28,0002.70
2021-12-30 07:48:00,,0813.2,5.00,0.00,22.5,21.7,00.0,31.6,24.1,06.6,0000.0,0004.28,0015.92,0002.70
2021-12-30 07:49:00,,0813.2,5.00,0.00,22.5,21.6,00.0,31.5,24.1,06.6,0000.0,0004.21,0015.98,0002.67
2021-12-30 07:50:00,,0813.2,5.00,0.00,22.5,21.7,00.0,31.5,24.1,06.6,0000.0,0004.24,0015.95,0002.66
2021-12-30 07:51:00,,0813.2,5.01,0.00,22.5,22.3,00.0,31.6,24.2,06.6,0000.0,0004.25,0015.47,0002.65
2021-12-30 07:52:00,,0813.2,4.99,0.00,22.7,23.1,00.0,31.6,24.5,06.6,0000.0,0004.32,0015.47,0002.63
2021-12-30 07:53:00,,0813.2,5.00,0.00,22.8,23.4,00.0,31.6,24.7,06.5,0000.0,0004.28,0014.55,0002.61
2021-12-30 07:54:00,,0813.2,5.01,0.00,22.8,23.2,00.0,31.6,24.6,06.5,0000.0,0004.27,0014.33,0002.59
2021-12-30 07:55:00,,0813.1,4.99,0.00,22.8,22.9,00.0,31.6,24.6,06.5,0000.0,0004.20,0013.80,0002.59
2021-12-30 07:56:00,,0813.1,5.00,0.00,22.8,22.7,00.0,31.7,24.5,06.5,0000.0,0004.18,0013.63,0002.60
2021-12-30 07:57:00,,0813.1,5.00,0.00,22.8,22.5,00.0,31.7,24.4,06.5,0000.0,0004.16,0012.47,0002.59
2021-12-30 07:58:00,,0813.1,4.99,0.00,22.7,22.3,00.0,31.7,24.4,06.5,0000.0,0004.13,0012.15,0002.59
2021-12-30 07:59:00,,0813.1,5.01,0.00,22.7,22.2,00.0,31.6,24.3,06.5,0000.0,0004.14,0011.52,0002.60
